[[{"header":{"parameterUnit":"m.s-1","parameterCategory":1,"la1":30.2991,"la2":30.254,"lo1":-89.0895,"lo2":-89.0444,"dy":0.0017,"dx":0.0017,"nx":28,"ny":28,"refTime":"2025-01-17T03:00:00:Z","depth":0,"parameterNumber":2,"parameterNumberName":"U-component_of_WINDS"},"data":[0,0,0,0,0,0,0,0,0,0,0,0,0,0,0,0,0,0,0,0,0,0,0,0,0,0,0,0,0,0,0,0,0,0,0,0,0,0,0,0,0,0,0,0,0,0,0,0,0,0,0,0,0,0,0,0,0,0,-1.3206,-1.3206,0,-1.3182,-1.3182,-1.3182,-1.3172,-1.3172,-1.3172,-1.3172,-1.3147,-1.3146,-1.3146,0,0,0,0,0,0,0,0,0,0,0,0,0,-1.3245,-1.3244,-1.3206,-1.3206,-1.3206,-1.3182,-1.3182,-1.3182,-1.3172,-1.3172,-1.3172,-1.3172,-1.3147,-1.3146,-1.3145,0,0,0,0,0,0,0,0,0,0,0,0,0,-1.3225,-1.3244,-1.3207,-1.3198,-1.3197,-1.3183,-1.3182,-1.3182,-1.3172,-1.3172,-1.3172,-1.3172,-1.3147,-1.3146,-1.3145,-1.3138,0,0,-1.3142,-1.3142,0,0,0,0,0,0,0,0,-1.3226,-1.3224,-1.32,-1.3199,-1.3197,-1.318,-1.3186,-1.3167,-1.3172,-1.3181,-1.3172,-1.3172,-1.3158,-1.3156,-1.3151,-1.3136,-1.3135,-1.3142,-1.3141,-1.3141,-1.3141,0,0,0,0,0,0,0,-1.3228,-1.3225,-1.3197,-1.3199,-1.3198,-1.3196,-1.3193,-1.3183,-1.3169,-1.318,-1.318,-1.3177,-1.3157,-1.3152,-1.3151,-1.3135,-1.3142,-1.3141,-1.3141,-1.314,-1.3114,-1.3114,0,0,0,0,0,0,-1.323,-1.3226,-1.3198,-1.3196,-1.3212,-1.3195,-1.3192,-1.3186,-1.317,-1.3167,-1.3177,-1.3177,-1.3154,-1.3152,-1.315,-1.314,-1.3141,-1.314,-1.3139,-1.3114,-1.3114,-1.3114,0,0,0,0,0,0,-1.3231,-1.3228,-1.3199,-1.3211,-1.3207,-1.3194,-1.3187,-1.3185,-1.318,-1.3167,-1.3165,-1.3174,-1.3154,-1.3151,-1.3141,-1.3139,-1.314,-1.3139,-1.3114,-1.3114,-1.3114,-1.3121,0,0,0,0,0,0,-1.3232,-1.3228,-1.3225,-1.3211,-1.3206,-1.319,-1.3187,-1.3185,-1.3178,-1.3178,-1.3164,-1.3161,-1.3154,-1.3143,-1.314,-1.3138,-1.3138,-1.3114,-1.3114,-1.3114,-1.3121,-1.3121,-1.3121,0,0,0,0,0,-1.3234,-1.3227,-1.3225,-1.3221,-1.3202,-1.319,-1.3187,-1.3179,-1.3178,-1.3175,-1.3167,-1.3162,-1.314,-1.3142,-1.3139,-1.3136,-1.3114,-1.3114,-1.3114,-1.3121,-1.3121,-1.3121,0,0,0,0,0,0,-1.324,-1.3225,-1.3222,-1.3211,-1.3202,-1.3188,-1.3183,-1.3179,-1.317,-1.317,-1.316,-1.3157,-1.3148,-1.3141,-1.3143,-1.3129,-1.3127,-1.3126,-1.3133,-1.3133,-1.3134,-1.3135,-1.3137,0,0,0,0,0,-1.3241,-1.3232,-1.3219,-1.3211,-1.3206,-1.3196,-1.319,-1.3185,-1.3175,-1.3171,-1.3162,-1.3153,-1.3144,-1.3138,-1.313,-1.312,-1.3118,-1.3117,-1.3118,-1.3118,-1.3117,-1.3113,-1.3113,-1.3114,-1.3114,-1.3114,0,0,-1.3241,-1.3231,-1.3226,-1.3212,-1.3204,-1.3196,-1.3193,-1.3184,-1.3178,-1.317,-1.316,-1.3153,-1.3142,-1.3133,-1.3128,-1.3127,-1.3117,-1.3118,-1.3118,-1.3117,-1.3113,-1.3113,-1.3113,-1.3114,-1.3114,-1.3114,0,0,-1.3237,-1.3229,-1.3221,-1.3214,-1.3203,-1.3196,-1.3195,-1.3182,-1.3178,-1.3168,-1.3162,-1.3155,-1.314,-1.3133,-1.3127,-1.3123,-1.3119,-1.3121,-1.3122,-1.3118,-1.3118,-1.3118,-1.3117,-1.3117,-1.312,-1.312,-1.312,0,-1.3238,-1.3225,-1.3218,-1.321,-1.3204,-1.3197,-1.319,-1.3184,-1.317,-1.3166,-1.3165,-1.3148,-1.314,-1.3129,-1.3128,-1.3124,-1.3122,-1.3122,-1.3119,-1.3119,-1.3118,-1.3118,-1.3117,-1.3121,-1.3121,-1.3121,-1.3121,0,-1.3228,-1.322,-1.3215,-1.3203,-1.3197,-1.3189,-1.3181,-1.3176,-1.3172,-1.3165,-1.3156,-1.3147,-1.3137,-1.3134,-1.3129,-1.3123,-1.3123,-1.3121,-1.3119,-1.3119,-1.3118,-1.3117,-1.3121,-1.3121,-1.3121,-1.3121,0,0,-1.3226,-1.3211,-1.321,-1.3205,-1.3193,-1.3187,-1.318,-1.317,-1.3166,-1.3158,-1.3152,-1.3141,-1.3139,-1.3133,-1.3128,-1.3124,-1.3123,-1.3122,-1.3122,-1.3123,-1.3117,-1.3119,-1.3118,-1.312,-1.312,-1.312,-1.3118,0,-1.322,-1.3207,-1.3201,-1.3191,-1.3184,-1.3178,-1.3172,-1.3165,-1.316,-1.3153,-1.3147,-1.3139,-1.3137,-1.3134,-1.313,-1.3124,-1.3122,-1.3124,-1.3115,-1.3115,-1.3118,-1.3118,-1.3119,-1.3117,-1.3117,-1.3117,-1.3117,0,-1.3212,-1.3204,-1.3194,-1.3185,-1.3181,-1.3176,-1.3168,-1.3162,-1.3154,-1.315,-1.3145,-1.314,-1.3133,-1.3133,-1.3124,-1.3125,-1.3122,-1.3118,-1.3118,-1.3116,-1.3116,-1.3116,-1.3116,-1.3116,-1.3117,-1.3117,-1.3117,0,-1.3212,-1.3199,-1.3191,-1.3187,-1.3176,-1.3173,-1.3168,-1.3161,-1.3156,-1.3149,-1.3146,-1.3139,-1.3134,-1.3129,-1.3123,-1.3123,-1.3115,-1.3113,-1.3112,-1.3112,-1.311,-1.311,-1.3109,-1.3108,-1.3108,-1.3108,-1.3108,0,-1.3206,-1.32,-1.3191,-1.3187,-1.318,-1.3174,-1.3167,-1.3162,-1.3156,-1.3151,-1.3146,-1.3141,-1.3133,-1.3128,-1.3123,-1.3117,-1.3115,-1.3112,-1.3111,-1.3112,-1.3113,-1.3109,-1.3109,-1.3108,-1.3108,-1.3108,-1.3108,0,-1.3204,-1.3198,-1.319,-1.3181,-1.3179,-1.3174,-1.3167,-1.3162,-1.3158,-1.3151,-1.3149,-1.3142,-1.3135,-1.3129,-1.312,-1.3117,-1.3111,-1.3109,-1.3113,-1.3113,-1.3112,-1.3112,-1.3109,-1.3108,-1.3107,-1.3107,-1.3107,0,-1.3201,-1.3196,-1.3187,-1.3184,-1.3179,-1.3173,-1.3169,-1.3163,-1.3159,-1.3151,-1.3148,-1.3141,-1.3135,-1.3125,-1.3119,-1.3113,-1.3111,-1.311,-1.311,-1.3112,-1.3111,-1.3112,-1.3112,-1.311,-1.311,-1.311,-1.311,0,-1.3195,-1.3193,-1.3187,-1.3181,-1.3176,-1.3171,-1.3165,-1.3162,-1.3156,-1.3151,-1.3145,-1.3141,-1.3132,-1.3126,-1.3119,-1.3115,-1.3112,-1.3111,-1.311,-1.3112,-1.3114,-1.3113,-1.3114,-1.3111,-1.3111,-1.3111,-1.3111,-1.3111,-1.3193,-1.3189,-1.3183,-1.3177,-1.3172,-1.3168,-1.3164,-1.3159,-1.3154,-1.3147,-1.3144,-1.3138,-1.3132,-1.3123,-1.3119,-1.3114,-1.3113,-1.3112,-1.3112,-1.3112,-1.3112,-1.3116,-1.3113,-1.3113,-1.3113,-1.3113,-1.3113,0,-1.3188,-1.3184,-1.3179,-1.3172,-1.3167,-1.3166,-1.316,-1.3156,-1.3151,-1.3146,-1.3141,-1.3134,-1.3129,-1.3123,-1.3117,-1.3115,-1.3114,-1.3114,-1.3114,-1.3113,-1.3113,-1.3114,-1.3115,-1.3115,-1.3115,-1.3115,-1.3115,-1.3115,-1.3184,-1.3178,-1.3176,-1.3168,-1.3164,-1.3158,-1.3155,-1.3152,-1.3148,-1.3141,-1.3136,-1.3133,-1.3128,-1.3122,-1.3117,-1.3116,-1.3114,-1.3115,-1.3113,-1.3113,-1.3113,-1.3113,-1.3114,-1.3114,-1.3114,-1.3113,-1.3113,-1.3113]},{"header":{"parameterUnit":"m.s-1","parameterCategory":1,"la1":30.2991,"la2":30.254,"lo1":-89.0895,"lo2":-89.0444,"dy":0.0017,"dx":0.0017,"nx":28,"ny":28,"refTime":"2025-01-17T03:00:00:Z","depth":0,"parameterNumber":3,"parameterNumberName":"V-component_of_WINDS"},"data":[0,0,0,0,0,0,0,0,0,0,0,0,0,0,0,0,0,0,0,0,0,0,0,0,0,0,0,0,0,0,0,0,0,0,0,0,0,0,0,0,0,0,0,0,0,0,0,0,0,0,0,0,0,0,0,0,0,0,2.9158,2.9158,0,2.9145,2.9145,2.9144,2.9157,2.9158,2.9158,2.9159,2.9143,2.9142,2.9141,0,0,0,0,0,0,0,0,0,0,0,0,0,2.9194,2.9193,2.9158,2.9158,2.9158,2.9145,2.9145,2.9144,2.9157,2.9158,2.9158,2.9159,2.9143,2.9142,2.9141,0,0,0,0,0,0,0,0,0,0,0,0,0,2.9179,2.9193,2.9158,2.9163,2.9163,2.9145,2.9145,2.9144,2.9157,2.9158,2.9159,2.9159,2.9143,2.9142,2.9141,2.9117,0,0,2.9137,2.9136,0,0,0,0,0,0,0,0,2.918,2.9178,2.9162,2.9163,2.9163,2.9154,2.9151,2.9135,2.9157,2.9159,2.9159,2.916,2.9146,2.9144,2.914,2.9116,2.9115,2.9136,2.9136,2.9135,2.9135,0,0,0,0,0,0,0,2.9181,2.9178,2.9153,2.9162,2.9162,2.9165,2.9164,2.9148,2.9148,2.9159,2.916,2.9158,2.9146,2.9141,2.9139,2.9115,2.9136,2.9135,2.9134,2.9134,2.9072,2.9071,0,0,0,0,0,0,2.9181,2.9179,2.9153,2.9153,2.9173,2.9164,2.9162,2.9156,2.9148,2.9148,2.9158,2.9159,2.9143,2.9141,2.9139,2.9111,2.9135,2.9134,2.9133,2.9073,2.9072,2.9071,0,0,0,0,0,0,2.9182,2.9179,2.9154,2.9166,2.9163,2.9162,2.9155,2.9155,2.915,2.9147,2.9147,2.9153,2.9144,2.9141,2.9123,2.9111,2.9133,2.9132,2.9074,2.9072,2.9071,2.9055,0,0,0,0,0,0,2.9183,2.9179,2.9171,2.9166,2.9162,2.9138,2.9154,2.9154,2.9148,2.915,2.9143,2.9142,2.9144,2.9124,2.9121,2.9109,2.9131,2.9075,2.9073,2.9072,2.9057,2.9054,2.9051,0,0,0,0,0,2.9184,2.9166,2.917,2.9167,2.9151,2.9137,2.9135,2.9138,2.9147,2.9138,2.9136,2.9143,2.9113,2.9123,2.9119,2.9106,2.9075,2.9073,2.9072,2.9058,2.9054,2.9051,0,0,0,0,0,0,2.9168,2.9165,2.917,2.9149,2.9144,2.914,2.9129,2.9134,2.9125,2.9127,2.913,2.9128,2.9109,2.9106,2.9117,2.9083,2.9095,2.9093,2.9086,2.9083,2.908,2.9081,2.913,0,0,0,0,0,2.9163,2.9152,2.915,2.9132,2.9129,2.9129,2.9123,2.9126,2.912,2.9117,2.9114,2.9107,2.9096,2.9089,2.9079,2.9056,2.9055,2.9046,2.9043,2.904,2.9038,2.9027,2.9023,2.9065,2.9065,2.9065,0,0,2.915,2.9147,2.914,2.9129,2.9124,2.9113,2.9127,2.9114,2.9106,2.9115,2.9098,2.9095,2.9088,2.9068,2.9059,2.9065,2.9026,2.9038,2.9036,2.9035,2.9025,2.9021,2.9017,2.9063,2.9064,2.9064,0,0,2.9122,2.9119,2.9104,2.91,2.9094,2.9094,2.9091,2.9086,2.9085,2.9068,2.9075,2.9065,2.9046,2.9041,2.9036,2.9006,2.9012,2.9003,2.8987,2.8976,2.8973,2.897,2.8961,2.8957,2.9001,2.9,2.9,0,2.9108,2.9092,2.9096,2.9083,2.9078,2.9086,2.9071,2.9067,2.9057,2.9053,2.906,2.9037,2.9033,2.9012,2.9005,2.9,2.8996,2.9004,2.8973,2.897,2.8968,2.8959,2.8955,2.8999,2.9,2.9,2.9,0,2.9074,2.9063,2.9052,2.9044,2.9037,2.9023,2.9025,2.9017,2.9021,2.902,2.9003,2.8998,2.8988,2.8983,2.8985,2.8962,2.8966,2.8973,2.8985,2.8963,2.8954,2.8951,2.8998,2.8998,2.8999,2.8999,0,0,2.9036,2.9031,2.9027,2.9024,2.9018,2.9009,2.8996,2.8986,2.898,2.8973,2.8962,2.8946,2.8953,2.8947,2.8949,2.8939,2.8917,2.8947,2.8947,2.8943,2.8893,2.8888,2.8884,2.8921,2.892,2.892,2.8893,0,2.9009,2.8986,2.899,2.8968,2.8958,2.8966,2.8954,2.8949,2.8949,2.894,2.8938,2.8927,2.8937,2.8933,2.8924,2.8922,2.8908,2.8924,2.8911,2.891,2.8913,2.8879,2.8874,2.885,2.889,2.8889,2.8889,0,2.8974,2.8967,2.8945,2.8942,2.8938,2.8927,2.8919,2.891,2.8905,2.8905,2.8899,2.8903,2.8889,2.8901,2.8882,2.8893,2.8888,2.8886,2.8886,2.8885,2.8899,2.8879,2.8842,2.8839,2.8884,2.8884,2.8885,0,2.895,2.8935,2.892,2.8917,2.8912,2.8905,2.8902,2.8898,2.8892,2.8884,2.8881,2.8871,2.8867,2.8859,2.886,2.8869,2.8841,2.8853,2.8841,2.8841,2.8836,2.8836,2.8799,2.8831,2.8831,2.8831,2.8831,0,2.8919,2.8905,2.8909,2.89,2.8884,2.8888,2.8873,2.8871,2.8867,2.8857,2.8863,2.8854,2.8856,2.8846,2.8847,2.8832,2.8829,2.8829,2.883,2.8829,2.8829,2.8826,2.8828,2.883,2.883,2.883,2.8831,0,2.889,2.8891,2.8876,2.8873,2.8872,2.8861,2.8858,2.885,2.8849,2.8837,2.8835,2.8834,2.8824,2.8824,2.8812,2.8812,2.8794,2.8796,2.8796,2.8797,2.8785,2.8786,2.8744,2.8739,2.8774,2.8774,2.8774,0,2.8871,2.886,2.8857,2.8852,2.8849,2.884,2.8834,2.8837,2.8831,2.8825,2.8817,2.8807,2.8799,2.8782,2.878,2.8771,2.8773,2.8759,2.8772,2.8772,2.8774,2.8775,2.8774,2.8757,2.8756,2.8756,2.8756,0,2.8837,2.8839,2.8831,2.8824,2.8817,2.8812,2.8806,2.8801,2.8804,2.8797,2.8787,2.8781,2.8769,2.8759,2.875,2.8747,2.8752,2.8752,2.8749,2.8748,2.8749,2.8749,2.879,2.8753,2.8753,2.8753,2.8754,2.8754,2.8813,2.8804,2.8801,2.8792,2.8789,2.8784,2.8776,2.8775,2.8767,2.8758,2.876,2.8749,2.8744,2.8733,2.8729,2.872,2.8725,2.872,2.8719,2.8718,2.8717,2.875,2.8718,2.8718,2.8718,2.8718,2.8719,0,2.878,2.8779,2.8771,2.8764,2.8757,2.8763,2.8757,2.8751,2.8742,2.8737,2.873,2.8718,2.8709,2.8706,2.8697,2.8691,2.8693,2.8688,2.8689,2.8688,2.8713,2.8717,2.8687,2.8687,2.8687,2.8687,2.8687,2.8687,2.8763,2.8749,2.875,2.8735,2.8733,2.8723,2.8719,2.8715,2.8711,2.8699,2.8691,2.869,2.8686,2.8677,2.8669,2.8668,2.8665,2.866,2.866,2.8683,2.8686,2.869,2.8693,2.8659,2.8659,2.8637,2.8637,2.8636]}]]